San Jose, CA

11:51 PM PST on January 16, 2018 (GMT -0800)
San Jose International

Weather History for KSJC - November, 2014

Change the Weather History Date:

Monday, November 10, 2014

  Actual Average Record
Temperature  
Mean Temperature 60 °F 56 °F  
Max Temperature 73 °F 66 °F 84 °F (1955)
Min Temperature 46 °F 47 °F 36 °F (1894)
Degree Days  
Heating Degree Days 5 8  
Month to date heating degree days 58 72  
Since 1 July heating degree days 107 182  
Cooling Degree Days 0 0  
Month to date cooling degree days 0 0  
Year to date cooling degree days 685 636  
Growing Degree Days 10 (Base 50)    
Moisture  
Dew Point 51 °F    
Average Humidity 77    
Maximum Humidity 100    
Minimum Humidity 53    
Precipitation  
Precipitation 0.00 in 0.05 in 1.04 in (1993)
Month to date precipitation 0.02 0.45  
Year to date precipitation 5.79 11.98  
Since 1 July precipitation 1.00  
Sea Level Pressure  
Sea Level Pressure 29.82 in    
Wind  
Wind Speed 5 mph (SSE)    
Max Wind Speed 15 mph    
Max Gust Speed 20 mph    
Visibility 6 miles    
Events Fog    
T = Trace of Precipitation, MM = Missing Value Source: NWS Daily Summary

Daily Weather History Graph

Daily Weather History Graph

Search for Another Location

Airport or City:

Trip Planner

Search our weather history database for the weather conditions in past years. The results will help you decide how hot, cold, wet, or windy it might be!

Date:

Astronomy

Nov. 10, 2014 Rise Set
Actual Time 6:41 AM PST 5:00 PM PST
Civil Twilight 6:14 AM PST 5:28 PM PST
Nautical Twilight 5:43 AM PST 5:59 PM PST
Astronomical Twilight 5:12 AM PST 6:30 PM PST
Moon 8:34 PM PST (11/10) 10:07 AM PST (11/10)
Length of Visible Light 11h 14m
Length of Day
10h 19m
Waning Gibbous, 84% of the Moon is Illuminated
Nov 10
Waning Gibbous
Nov 14
Last Quarter
Nov 22
New
Nov 29
First Quarter
Dec 6
Full

Hourly Weather History & Observations

Time (PST) Temp. Dew Point Humidity Pressure Visibility Wind Dir Wind Speed Gust Speed Precip Events Conditions
12:53 AM 53.1 °F 50.0 °F 89% 29.83 in 10.0 mi SSE 4.6 mph - N/A   Clear
1:03 AM 53.6 °F 51.8 °F 94% 29.83 in 10.0 mi Calm Calm - N/A   Scattered Clouds
1:53 AM 53.1 °F 48.9 °F 86% 29.83 in 10.0 mi Calm Calm - N/A   Clear
2:41 AM 51.8 °F 48.2 °F 88% 29.82 in 10.0 mi Calm Calm - N/A   Scattered Clouds
2:51 AM 51.8 °F 48.2 °F 88% 29.82 in 10.0 mi Calm Calm - N/A   Mostly Cloudy
2:53 AM 51.1 °F 48.0 °F 89% 29.82 in 10.0 mi South 3.5 mph - N/A   Mostly Cloudy
3:53 AM 51.1 °F 48.0 °F 89% 29.81 in 10.0 mi Calm Calm - N/A   Overcast
4:11 AM 50.0 °F 46.4 °F 87% 29.80 in 10.0 mi SE 3.5 mph - N/A   Scattered Clouds
4:53 AM 48.0 °F 46.9 °F 96% 29.80 in 8.0 mi SE 3.5 mph - N/A   Clear
5:08 AM 48.2 °F 46.4 °F 93% 29.80 in 5.0 mi Calm Calm - N/A   Scattered Clouds
5:12 AM 48.2 °F 48.2 °F 100% 29.80 in 1.8 mi Calm Calm - N/A   Mostly Cloudy
5:21 AM 48.2 °F 48.2 °F 100% 29.80 in 0.5 mi Calm Calm - N/A Fog Fog
5:28 AM 48.2 °F 48.2 °F 100% 29.81 in 0.2 mi Calm Calm - N/A Fog Fog
5:45 AM 50.0 °F 50.0 °F 100% 29.81 in 0.2 mi Calm Calm - N/A Fog Fog
5:53 AM 50.0 °F 50.0 °F 100% 29.81 in 0.1 mi Calm Calm - N/A Fog Fog
6:11 AM 48.2 °F 48.2 °F 100% 29.82 in 1.0 mi Calm Calm - N/A   Partly Cloudy
6:19 AM 48.2 °F 48.2 °F 100% 29.82 in 1.0 mi Calm Calm - N/A   Scattered Clouds
6:25 AM 48.2 °F 48.2 °F 100% 29.81 in 0.2 mi West 3.5 mph - N/A Fog Fog
6:35 AM 50.0 °F 50.0 °F 100% 29.82 in 0.2 mi Calm Calm - N/A Fog Fog
6:53 AM 51.1 °F 51.1 °F 100% 29.82 in 0.2 mi Calm Calm - N/A Fog Fog
7:51 AM 51.8 °F 51.8 °F 100% 29.84 in 0.2 mi SE 3.5 mph - N/A Fog Fog
7:53 AM 52.0 °F 52.0 °F 100% 29.84 in 0.1 mi SE 3.5 mph - N/A Fog Fog
8:31 AM 51.8 °F 51.8 °F 100% 29.84 in 0.1 mi Calm Calm - N/A Fog Fog
8:36 AM 51.8 °F 51.8 °F 100% 29.84 in 0.2 mi East 3.5 mph - N/A Fog Fog
8:44 AM 51.8 °F 51.8 °F 100% 29.84 in 0.5 mi ESE 3.5 mph - N/A Fog Fog
8:53 AM 52.0 °F 52.0 °F 100% 29.85 in 1.0 mi Calm Calm - N/A   Mostly Cloudy
9:07 AM 53.6 °F 53.6 °F 100% 29.84 in 3.0 mi Variable 3.5 mph - N/A   Mostly Cloudy
9:13 AM 53.6 °F 53.6 °F 100% 29.84 in 3.0 mi NE 3.5 mph - N/A   Partly Cloudy
9:53 AM 57.9 °F 51.1 °F 78% 29.85 in 6.0 mi Calm Calm - N/A   Haze
10:53 AM 61.0 °F 53.1 °F 75% 29.85 in 7.0 mi Calm Calm - N/A   Partly Cloudy
11:53 AM 66.0 °F 52.0 °F 60% 29.83 in 7.0 mi Calm Calm - N/A   Clear
12:53 PM 69.1 °F 51.1 °F 53% 29.80 in 9.0 mi Calm Calm - N/A   Clear
1:53 PM 71.1 °F 55.0 °F 57% 29.78 in 7.0 mi NW 9.2 mph - N/A   Clear
2:53 PM 66.9 °F 53.1 °F 61% 29.78 in 6.0 mi WNW 11.5 mph - N/A   Haze
3:53 PM 64.0 °F 55.0 °F 73% 29.80 in 6.0 mi WNW 15.0 mph - N/A   Haze
4:53 PM 61.0 °F 54.0 °F 78% 29.81 in 9.0 mi WNW 9.2 mph - N/A   Clear
5:53 PM 59.0 °F 53.1 °F 81% 29.82 in 10.0 mi West 4.6 mph - N/A   Clear
6:50 PM 57.2 °F 53.6 °F 88% 29.82 in 10.0 mi South 4.6 mph - N/A   Partly Cloudy
6:53 PM 57.9 °F 54.0 °F 87% 29.82 in 10.0 mi SSE 4.6 mph - N/A   Partly Cloudy
7:53 PM 57.0 °F 52.0 °F 83% 29.82 in 10.0 mi SSE 6.9 mph - N/A   Clear
8:53 PM 55.9 °F 51.1 °F 84% 29.82 in 10.0 mi SE 10.4 mph - N/A   Clear
9:53 PM 55.0 °F 51.1 °F 86% 29.83 in 10.0 mi SSE 6.9 mph - N/A   Clear
10:53 PM 55.9 °F 51.1 °F 84% 29.85 in 10.0 mi SE 9.2 mph - N/A   Scattered Clouds
11:10 PM 55.4 °F 51.8 °F 88% 29.85 in 10.0 mi SE 11.5 mph - N/A   Mostly Cloudy
11:53 PM 55.9 °F 52.0 °F 87% 29.85 in 10.0 mi SSE 11.5 mph - N/A   Mostly Cloudy